Weather reports worldwide

Advertisment
Blencathra, United Kingdom (99143): temperature & dewpoint: 10.11.2018 10:00:00 - 16.11.2018 10:00:00 (GMT)Blencathra, United Kingdom (99143): precipitation: 10.11.2018 10:00:00 - 16.11.2018 10:00:00 (GMT)
Date & Time tt [°C] td [°C] rr [mm]
16.11.2018 10:00:00 - - -
16.11.2018 09:00:00 11,3 11,0 0,0
16.11.2018 08:00:00 10,7 10,6 -
16.11.2018 07:00:00 - - -
16.11.2018 06:00:00 10,3 10,3 0,0
16.11.2018 05:00:00 10,4 10,3 0,0
16.11.2018 04:00:00 10,1 10,0 0,0
16.11.2018 03:00:00 10,0 9,6 0,0
16.11.2018 02:00:00 9,9 9,1 0,0
16.11.2018 01:00:00 9,7 9,1 0,0
16.11.2018 00:00:00 9,3 8,9 0,0
15.11.2018 23:00:00 9,4 8,7 0,0
15.11.2018 22:00:00 10,4 9,1 0,0
15.11.2018 21:00:00 10,2 8,5 0,0
15.11.2018 20:00:00 11,2 8,6 0,0
15.11.2018 19:00:00 10,5 8,3 0,0
15.11.2018 18:00:00 10,2 8,7 0,0
15.11.2018 17:00:00 10,0 8,5 0,0
15.11.2018 16:00:00 10,4 8,7 0,0
15.11.2018 15:00:00 10,3 8,5 0,0
15.11.2018 14:00:00 10,2 7,5 0,0
15.11.2018 13:00:00 11,2 8,2 0,0
15.11.2018 12:00:00 10,2 7,2 0,0
15.11.2018 11:00:00 9,3 6,9 0,0
15.11.2018 10:00:00 8,4 5,7 0,0
15.11.2018 09:00:00 7,9 5,4 0,0
15.11.2018 08:00:00 7,6 4,9 0,0
15.11.2018 07:00:00 7,2 5,1 0,0
15.11.2018 06:00:00 6,9 4,8 0,0
15.11.2018 05:00:00 7,2 5,3 0,0
15.11.2018 04:00:00 7,1 5,6 0,0
15.11.2018 03:00:00 7,3 6,0 0,0
15.11.2018 02:00:00 7,5 6,3 0,0
15.11.2018 01:00:00 7,8 6,0 0,0
15.11.2018 00:00:00 7,9 6,1 0,0
14.11.2018 23:00:00 8,8 6,6 0,0
14.11.2018 22:00:00 10,5 5,8 0,0
14.11.2018 21:00:00 9,4 7,6 0,0
14.11.2018 20:00:00 9,9 7,6 0,0
14.11.2018 19:00:00 10,8 7,8 0,0
14.11.2018 18:00:00 10,2 8,3 0,0
14.11.2018 17:00:00 9,8 9,0 0,0
14.11.2018 16:00:00 10,1 8,6 0,0
14.11.2018 15:00:00 10,6 9,7 0,0
14.11.2018 14:00:00 10,6 10,2 0,6
14.11.2018 13:00:00 11,0 10,7 0,6
14.11.2018 12:00:00 11,0 10,4 1,0
14.11.2018 11:00:00 10,9 10,5 0,4
14.11.2018 10:00:00 11,2 10,4 0,2
14.11.2018 09:00:00 11,0 10,7 0,4
14.11.2018 08:00:00 10,8 10,4 3,0
14.11.2018 07:00:00 9,4 8,9 1,4
14.11.2018 06:00:00 8,8 8,2 0,8
14.11.2018 05:00:00 8,8 7,9 0,8
14.11.2018 04:00:00 8,5 7,9 0,8
14.11.2018 03:00:00 8,6 7,8 0,4
14.11.2018 02:00:00 8,6 7,6 0,2
14.11.2018 01:00:00 10,0 6,9 0,0
14.11.2018 00:00:00 9,2 6,7 0,0
13.11.2018 23:00:00 9,0 6,7 0,0
13.11.2018 22:00:00 10,0 6,8 0,0
13.11.2018 21:00:00 10,1 6,9 0,0
13.11.2018 20:00:00 9,6 7,3 0,0
13.11.2018 19:00:00 9,8 7,0 0,0
13.11.2018 18:00:00 9,2 7,3 0,2
13.11.2018 17:00:00 9,0 5,6 0,0
13.11.2018 16:00:00 8,9 5,0 0,0
13.11.2018 15:00:00 9,0 5,4 0,0
13.11.2018 14:00:00 9,1 5,8 0,0
13.11.2018 13:00:00 9,1 5,3 0,0
13.11.2018 12:00:00 8,7 5,9 0,0
13.11.2018 11:00:00 9,0 5,5 0,0
13.11.2018 10:00:00 8,4 5,8 0,0
13.11.2018 09:00:00 8,2 5,8 0,0
13.11.2018 08:00:00 8,2 5,6 0,0
13.11.2018 07:00:00 7,9 6,3 0,2
13.11.2018 06:00:00 7,9 6,2 0,2
13.11.2018 05:00:00 7,6 7,1 0,6
13.11.2018 04:00:00 7,7 6,8 1,6
13.11.2018 03:00:00 7,5 6,6 0,2
13.11.2018 02:00:00 7,7 7,0 0,8
13.11.2018 01:00:00 6,9 6,1 1,0
13.11.2018 00:00:00 6,4 5,7 3,6
12.11.2018 23:00:00 7,3 6,3 0,8
12.11.2018 22:00:00 7,4 6,2 0,4
12.11.2018 21:00:00 7,1 6,4 1,0
12.11.2018 20:00:00 7,0 5,2 1,0
12.11.2018 19:00:00 7,9 5,8 1,0
12.11.2018 18:00:00 9,2 5,6 0,0
12.11.2018 17:00:00 9,2 6,0 0,0
12.11.2018 16:00:00 8,9 6,0 0,0
12.11.2018 15:00:00 7,5 5,8 1,0
12.11.2018 14:00:00 7,3 6,1 2,0
12.11.2018 13:00:00 7,3 6,2 1,8
12.11.2018 12:00:00 7,6 6,4 1,4
12.11.2018 11:00:00 8,1 6,9 0,4
12.11.2018 10:00:00 8,7 6,8 0,0
12.11.2018 09:00:00 7,5 6,8 0,0
12.11.2018 08:00:00 7,1 6,6 0,0
12.11.2018 07:00:00 7,2 6,8 0,4
12.11.2018 06:00:00 7,3 6,8 0,6
12.11.2018 05:00:00 7,3 6,9 0,6
12.11.2018 04:00:00 7,3 6,8 0,8
12.11.2018 03:00:00 7,2 6,7 1,2
12.11.2018 02:00:00 7,2 6,6 1,2
12.11.2018 01:00:00 7,1 6,4 1,4
12.11.2018 00:00:00 7,1 6,4 1,6
11.11.2018 23:00:00 7,0 6,4 1,0
11.11.2018 22:00:00 6,9 6,3 3,4
11.11.2018 21:00:00 7,2 6,2 0,8
11.11.2018 20:00:00 6,9 6,1 3,6
11.11.2018 19:00:00 8,1 6,1 0,0
11.11.2018 18:00:00 7,7 5,9 0,8
11.11.2018 17:00:00 7,8 4,8 0,0
11.11.2018 16:00:00 7,1 4,4 0,0
11.11.2018 15:00:00 7,5 5,2 0,4
11.11.2018 14:00:00 8,3 5,9 0,0
11.11.2018 13:00:00 8,0 7,0 0,2
11.11.2018 12:00:00 7,1 6,4 0,8
11.11.2018 11:00:00 7,1 6,3 0,0
11.11.2018 10:00:00 7,6 6,4 0,0
11.11.2018 09:00:00 7,2 6,0 0,0
11.11.2018 08:00:00 7,0 6,1 0,0
11.11.2018 07:00:00 6,7 6,1 0,0
11.11.2018 06:00:00 6,7 6,0 0,0
11.11.2018 05:00:00 6,8 5,9 0,0
11.11.2018 04:00:00 7,0 6,3 0,0
11.11.2018 03:00:00 7,2 6,5 0,2
11.11.2018 02:00:00 7,2 6,5 0,0
11.11.2018 01:00:00 7,3 6,5 0,2
11.11.2018 00:00:00 7,4 6,6 0,0
10.11.2018 23:00:00 7,5 6,6 0,0
10.11.2018 22:00:00 7,7 6,7 0,0
10.11.2018 21:00:00 8,0 5,4 0,2
10.11.2018 20:00:00 8,0 6,1 0,2
10.11.2018 19:00:00 8,0 6,9 0,2
10.11.2018 18:00:00 7,2 5,8 2,6
10.11.2018 17:00:00 8,1 7,4 2,2
10.11.2018 16:00:00 8,2 7,1 0,6
10.11.2018 15:00:00 8,6 6,3 0,0
10.11.2018 14:00:00 8,7 6,8 0,4
10.11.2018 13:00:00 9,1 6,9 0,0
10.11.2018 12:00:00 9,0 7,7 0,0
10.11.2018 11:00:00 8,3 6,1 0,0
10.11.2018 10:00:00 7,9 6,4 0,0

tt = temperature
td = dewpoint
rr = precipitation

Next stations